Weather History for Santa Ana, CA

Change the Weather History Date:

Sunday, February 23, 2014

  Actual Average Record
Temperature  
Mean Temperature 60 °F 58 °F  
Max Temperature 71 °F 66 °F 75 °F (2012)
Min Temperature 49 °F 49 °F 43 °F (2006)
Degree Days  
Heating Degree Days 5 7  
Month to date heating degree days 95 180  
Since 1 July heating degree days 477 872  
Cooling Degree Days 0 0  
Month to date cooling degree days 0 0  
Year to date cooling degree days 27 5  
Growing Degree Days 9 (Base 50)    
Moisture  
Dew Point 50 °F    
Average Humidity 70    
Maximum Humidity 96    
Minimum Humidity 44    
Precipitation  
Precipitation 0.00 in 0.13 in 0.71 in (2005)
Month to date precipitation 0.18 2.37  
Year to date precipitation 0.20 5.28  
Since 1 July precipitation 1.25 9.65  
Snow  
Snow 0.00 in - - ()
Month to date snowfall 0.0  
Year to date snowfall 0.0  
Since 1 July snowfall 0.0  
Snow Depth 0.00 in    
Sea Level Pressure  
Sea Level Pressure 29.95 in    
Wind  
Wind Speed 3 mph (SSW)    
Max Wind Speed 12 mph    
Max Gust Speed 16 mph    
Visibility 4 miles    
Events Fog    
T = Trace of Precipitation, MM = Missing Value Source: NWS Daily Summary

Daily Weather History Graph

Daily Weather History Graph

Search for Another Location

Airport:

Trip Planner

Search our weather history database for the weather conditions in past years. The results will help you decide how hot, cold, wet, or windy it might be!

Date:

Astronomy

Feb. 23, 2014 Rise Set
Actual Time 6:26 AM PST 5:43 PM PST
Civil Twilight 6:01 AM PST 6:08 PM PST
Nautical Twilight 5:32 AM PST 6:37 PM PST
Astronomical Twilight 5:03 AM PST 7:06 PM PST
Moon 1:21 AM PST (2/23) 11:58 AM PST (2/23)
Length of Visible Light 12h 06m
Length of Day
11h 16m
Last Quarter, 38% of the Moon is Illuminated
Feb 23
Last Quarter
Mar 1
New
Mar 8
First Quarter
Mar 16
Full
Mar 23
Last Quarter

Hourly Weather History & Observations

Time (PST) Temp. Dew Point Humidity Pressure Visibility Wind Dir Wind Speed Gust Speed Precip Events Conditions
12:53 AM 55.9 °F 53.1 °F 90% 29.94 in 0.2 mi Calm Calm - N/A Fog Fog
1:43 AM 55.4 °F 53.6 °F 94% 29.93 in 0.8 mi Calm Calm - N/A   Mist
1:53 AM 55.0 °F 53.1 °F 93% 29.93 in 0.8 mi Calm Calm - N/A   Overcast
2:00 AM 55.4 °F 53.6 °F 94% 29.93 in 1.0 mi Calm Calm - N/A   Overcast
2:09 AM 53.6 °F 51.8 °F 94% 29.93 in 0.8 mi Calm Calm - N/A   Overcast
2:48 AM 51.8 °F 50.0 °F 94% 29.93 in 2.0 mi Calm Calm - N/A   Overcast
2:53 AM 52.0 °F 50.0 °F 93% 29.93 in 1.5 mi Calm Calm - N/A   Overcast
2:58 AM 53.6 °F 51.8 °F 94% 29.93 in 0.2 mi Calm Calm - N/A Fog Fog
3:23 AM 51.8 °F 48.2 °F 88% 29.93 in 0.5 mi Calm Calm - N/A Fog Fog
3:30 AM 51.8 °F 48.2 °F 88% 29.92 in 2.0 mi Calm Calm - N/A   Mostly Cloudy
3:39 AM 50.0 °F 46.4 °F 87% 29.92 in 5.0 mi NNE 4.6 mph - N/A   Scattered Clouds
3:49 AM 51.8 °F 48.2 °F 88% 29.93 in 0.8 mi North 3.5 mph - N/A   Mist
3:53 AM 51.1 °F 48.9 °F 92% 29.93 in 0.2 mi NNE 3.5 mph - N/A Fog Fog
4:11 AM 51.8 °F 50.0 °F 94% 29.93 in 0.2 mi North 3.5 mph - 0.01 in Fog Fog
4:29 AM 51.8 °F 50.0 °F 94% 29.93 in 0.5 mi Calm Calm - 0.01 in Fog Fog
4:37 AM 51.8 °F 50.0 °F 94% 29.93 in 0.2 mi SE 3.5 mph - 0.01 in Fog Fog
4:51 AM 51.8 °F 50.0 °F 94% 29.94 in 0.2 mi Calm Calm - 0.01 in Fog Fog
4:53 AM 52.0 °F 50.0 °F 93% 29.94 in 0.2 mi SSE 3.5 mph - 0.01 in Fog Fog
5:01 AM 48.2 °F 46.4 °F 93% 29.94 in 1.0 mi SE 3.5 mph - N/A   Mist
5:03 AM 50.0 °F 46.4 °F 87% 29.94 in 3.0 mi Calm Calm - N/A   Overcast
5:53 AM 48.9 °F 46.0 °F 90% 29.94 in 8.0 mi Calm Calm - N/A Fog Patches of Fog
6:53 AM 50.0 °F 46.9 °F 89% 29.97 in 6.0 mi Calm Calm - N/A   Scattered Clouds
7:53 AM 53.1 °F 48.0 °F 83% 29.99 in 6.0 mi Calm Calm - N/A   Scattered Clouds
8:53 AM 57.0 °F 46.9 °F 69% 29.99 in 6.0 mi Calm Calm - N/A   Haze
9:53 AM 62.1 °F 51.1 °F 67% 30.00 in 6.0 mi Calm Calm - N/A   Haze
10:53 AM 64.0 °F 52.0 °F 65% 30.00 in 7.0 mi SW 11.5 mph - N/A   Partly Cloudy
11:53 AM 66.0 °F 51.1 °F 59% 29.99 in 8.0 mi SW 8.1 mph - N/A   Clear
12:53 PM 70.0 °F 48.0 °F 46% 29.95 in 8.0 mi SW 6.9 mph - N/A   Clear
1:53 PM 68.0 °F 48.9 °F 50% 29.93 in 9.0 mi SW 8.1 mph - N/A   Clear
2:53 PM 70.0 °F 46.9 °F 44% 29.91 in 8.0 mi SW 5.8 mph - N/A   Clear
3:53 PM 70.0 °F 42.1 °F 36% 29.91 in 10.0 mi WSW 4.6 mph - N/A   Clear
4:53 PM 66.0 °F 48.9 °F 54% 29.91 in 10.0 mi SSW 9.2 mph - N/A   Clear
5:53 PM 63.0 °F 52.0 °F 67% 29.93 in 10.0 mi WSW 5.8 mph - N/A   Partly Cloudy
6:53 PM 61.0 °F 55.0 °F 81% 29.95 in 7.0 mi SSW 8.1 mph - N/A   Partly Cloudy
7:45 PM 60.8 °F 53.6 °F 77% 29.97 in 7.0 mi SSW 6.9 mph - N/A   Scattered Clouds
7:53 PM 60.1 °F 54.0 °F 80% 29.98 in 7.0 mi SSW 5.8 mph - N/A   Scattered Clouds
8:53 PM 60.1 °F 54.0 °F 80% 29.99 in 6.0 mi South 5.8 mph - N/A   Scattered Clouds
9:53 PM 59.0 °F 53.1 °F 81% 30.00 in 6.0 mi Calm Calm - N/A   Scattered Clouds
10:53 PM 57.9 °F 52.0 °F 81% 30.00 in 7.0 mi Calm Calm - N/A   Scattered Clouds
11:38 PM 57.2 °F 51.8 °F 82% 30.00 in 7.0 mi NE 3.5 mph - N/A   Mostly Cloudy
11:53 PM 57.0 °F 52.0 °F 83% 30.00 in 7.0 mi Calm Calm - N/A   Mostly Cloudy